When you browse on this site, cookies collect data to enhance your experience and personalize the content and advertising you see.
Visit our Privacy Policy to learn more. By continuing to use the site, you agree to this use of cookies and data.
  • In Österreich
  • Länderverzeichnis
  • Für 7 Tage
  • Wassertemperatur
  • Wetterkarte
  • News
  • Widgets
  • user-avatar
    Anmelden

    Stündliche Wetter Oita

    Heute, 9 Dezember, Montag

    Zeit Temperatur Niederschläge Wind Luftdruck Luftfeuchtigkeit
    00:00 +6°C° 0 mm 2 m/S 763 mmHg 77%
    01:00 +6°C° 0 mm 2 m/S 762 mmHg 77%
    02:00 +5°C° 0 mm 2 m/S 762 mmHg 77%
    03:00 +6°C° 0 mm 1 m/S 762 mmHg 76%
    04:00 +6°C° 0 mm 1 m/S 762 mmHg 76%
    05:00 +6°C° 0 mm 1 m/S 762 mmHg 75%
    06:00 +6°C° 0 mm 1 m/S 762 mmHg 75%
    07:00 +7°C° 0 mm 1 m/S 762 mmHg 71%
    08:00 +9°C° 0 mm 1 m/S 762 mmHg 67%
    09:00 +10°C° 0 mm 1 m/S 763 mmHg 58%
    10:00 +12°C° 0 mm 1 m/S 762 mmHg 54%
    11:00 +12°C° 0 mm 0 m/S 762 mmHg 50%
    12:00 +14°C° 0 mm 0 m/S 762 mmHg 45%
    13:00 +15°C° 0 mm 1 m/S 761 mmHg 48%
    14:00 +15°C° 0 mm 1 m/S 761 mmHg 51%
    15:00 +14°C° 0 mm 2 m/S 761 mmHg 52%
    16:00 +13°C° 0 mm 1 m/S 761 mmHg 61%
    17:00 +11°C° 0 mm 1 m/S 761 mmHg 69%
    18:00 +8°C° 0 mm 0 m/S 761 mmHg 78%
    19:00 +8°C° 0 mm 0 m/S 761 mmHg 77%
    20:00 +9°C° 0 mm 1 m/S 762 mmHg 77%
    21:00 +9°C° 0 mm 1 m/S 762 mmHg 77%
    22:00 +8°C° 0 mm 1 m/S 762 mmHg 76%
    23:00 +8°C° 0 mm 1 m/S 762 mmHg 75%

    Morgen, 10 Dezember, Dienstag

    Zeit Temperatur Niederschläge Wind Luftdruck Luftfeuchtigkeit
    00:00 +8°C° 0 mm 1 m/S 762 mmHg 74%
    01:00 +8°C° 0 mm 1 m/S 761 mmHg 74%
    02:00 +8°C° 0 mm 1 m/S 761 mmHg 74%
    03:00 +8°C° 0 mm 1 m/S 761 mmHg 74%
    04:00 +8°C° 0 mm 1 m/S 761 mmHg 73%
    05:00 +7°C° 0 mm 1 m/S 761 mmHg 73%
    06:00 +7°C° 0 mm 1 m/S 761 mmHg 73%
    07:00 +9°C° 0 mm 1 m/S 761 mmHg 70%
    08:00 +10°C° 0 mm 1 m/S 761 mmHg 67%
    09:00 +11°C° 0 mm 1 m/S 761 mmHg 64%
    10:00 +12°C° 0 mm 1 m/S 761 mmHg 60%
    11:00 +14°C° 0 mm 1 m/S 760 mmHg 57%
    12:00 +16°C° 0 mm 1 m/S 760 mmHg 53%
    13:00 +15°C° 0 mm 1 m/S 760 mmHg 54%
    14:00 +15°C° 0 mm 1 m/S 759 mmHg 55%
    15:00 +15°C° 0 mm 1 m/S 759 mmHg 56%
    16:00 +14°C° 0 mm 1 m/S 759 mmHg 64%
    17:00 +12°C° 0 mm 1 m/S 760 mmHg 72%
    18:00 +9°C° 0 mm 0 m/S 760 mmHg 81%
    19:00 +9°C° 0 mm 0 m/S 760 mmHg 81%
    20:00 +10°C° 0 mm 1 m/S 760 mmHg 81%
    21:00 +9°C° 0 mm 1 m/S 760 mmHg 81%
    22:00 +9°C° 0 mm 1 m/S 759 mmHg 80%
    23:00 +9°C° 0 mm 1 m/S 759 mmHg 78%

    übermorgen, 11 Dezember, Mittwoch

    Zeit Temperatur Niederschläge Wind Luftdruck Luftfeuchtigkeit
    00:00 +9°C° 0 mm 1 m/S 759 mmHg 76%
    01:00 +9°C° 0 mm 1 m/S 759 mmHg 75%
    02:00 +9°C° 0 mm 1 m/S 759 mmHg 73%
    03:00 +9°C° 0 mm 1 m/S 759 mmHg 71%
    04:00 +8°C° 0 mm 1 m/S 759 mmHg 70%
    05:00 +8°C° 0 mm 1 m/S 758 mmHg 69%
    06:00 +8°C° 0 mm 1 m/S 758 mmHg 68%
    07:00 +9°C° 0 mm 1 m/S 758 mmHg 67%
    08:00 +10°C° 0 mm 1 m/S 758 mmHg 66%
    09:00 +12°C° 0 mm 1 m/S 759 mmHg 66%
    10:00 +13°C° 0 mm 1 m/S 758 mmHg 63%
    11:00 +14°C° 0 mm 1 m/S 758 mmHg 60%
    12:00 +16°C° 0 mm 1 m/S 758 mmHg 58%
    13:00 +16°C° 0 mm 1 m/S 757 mmHg 59%
    14:00 +16°C° 0 mm 1 m/S 757 mmHg 60%
    15:00 +16°C° 0 mm 1 m/S 756 mmHg 61%
    16:00 +15°C° 0 mm 1 m/S 756 mmHg 66%
    17:00 +14°C° 0 mm 1 m/S 756 mmHg 70%
    18:00 +13°C° 0 mm 1 m/S 756 mmHg 75%
    19:00 +12°C° 0 mm 1 m/S 756 mmHg 76%
    20:00 +12°C° 0 mm 2 m/S 756 mmHg 78%
    21:00 +12°C° 0 mm 2 m/S 756 mmHg 80%
    22:00 +12°C° 0 mm 2 m/S 757 mmHg 82%
    23:00 +12°C° 0 mm 2 m/S 757 mmHg 85%

    12 Dezember, Donnerstag

    Zeit Temperatur Niederschläge Wind Luftdruck Luftfeuchtigkeit
    00:00 +11°C° 0 mm 3 m/S 757 mmHg 87%
    01:00 +10°C° 0 mm 3 m/S 758 mmHg 85%
    02:00 +8°C° 0 mm 4 m/S 758 mmHg 82%
    03:00 +7°C° 0 mm 4 m/S 758 mmHg 80%
    04:00 +7°C° 0 mm 4 m/S 759 mmHg 79%
    05:00 +6°C° 0 mm 4 m/S 759 mmHg 79%
    06:00 +6°C° 0 mm 4 m/S 760 mmHg 78%
    07:00 +6°C° 0 mm 4 m/S 760 mmHg 76%
    08:00 +7°C° 0 mm 4 m/S 761 mmHg 73%
    09:00 +7°C° 0 mm 4 m/S 762 mmHg 70%
    10:00 +8°C° 0 mm 4 m/S 762 mmHg 68%
    11:00 +8°C° 0 mm 5 m/S 762 mmHg 65%
    12:00 +9°C° 0 mm 5 m/S 762 mmHg 62%
    13:00 +9°C° 0 mm 5 m/S 762 mmHg 60%
    14:00 +9°C° 0 mm 5 m/S 762 mmHg 57%
    15:00 +9°C° 0 mm 5 m/S 762 mmHg 54%
    16:00 +8°C° 0 mm 4 m/S 762 mmHg 57%
    17:00 +7°C° 0 mm 4 m/S 762 mmHg 59%
    18:00 +5°C° 0 mm 4 m/S 763 mmHg 62%
    19:00 +5°C° 0 mm 3 m/S 763 mmHg 62%
    20:00 +4°C° 0 mm 3 m/S 763 mmHg 62%
    21:00 +5°C° 0 mm 2 m/S 764 mmHg 62%
    22:00 +5°C° 0 mm 2 m/S 764 mmHg 63%
    23:00 +4°C° 0 mm 2 m/S 764 mmHg 64%

    13 Dezember, Freitag

    Zeit Temperatur Niederschläge Wind Luftdruck Luftfeuchtigkeit
    00:00 +4°C° 0 mm 2 m/S 764 mmHg 65%
    01:00 +4°C° 0 mm 2 m/S 764 mmHg 65%
    02:00 +4°C° 0 mm 2 m/S 764 mmHg 65%
    03:00 +5°C° 0 mm 1 m/S 764 mmHg 66%
    04:00 +5°C° 0 mm 1 m/S 764 mmHg 66%
    05:00 +5°C° 0 mm 1 m/S 764 mmHg 65%
    06:00 +5°C° 0 mm 1 m/S 764 mmHg 65%
    07:00 +6°C° 0 mm 1 m/S 764 mmHg 62%
    08:00 +7°C° 0 mm 1 m/S 764 mmHg 59%
    09:00 +9°C° 0 mm 1 m/S 765 mmHg 56%
    10:00 +10°C° 0 mm 1 m/S 764 mmHg 52%
    11:00 +12°C° 0 mm 1 m/S 764 mmHg 47%
    12:00 +14°C° 0 mm 1 m/S 763 mmHg 43%
    13:00 +13°C° 0 mm 1 m/S 763 mmHg 46%
    14:00 +13°C° 0 mm 1 m/S 763 mmHg 49%
    15:00 +13°C° 0 mm 1 m/S 763 mmHg 52%
    16:00 +12°C° 0 mm 1 m/S 763 mmHg 59%
    17:00 +10°C° 0 mm 1 m/S 763 mmHg 66%
    18:00 +8°C° 0 mm 0 m/S 763 mmHg 73%
    19:00 +8°C° 0 mm 1 m/S 763 mmHg 75%
    20:00 +8°C° 0 mm 1 m/S 763 mmHg 76%
    21:00 +7°C° 0 mm 2 m/S 763 mmHg 78%
    22:00 +8°C° 0 mm 1 m/S 763 mmHg 78%
    23:00 +8°C° 0 mm 1 m/S 763 mmHg 79%

    14 Dezember, Samstag

    Zeit Temperatur Niederschläge Wind Luftdruck Luftfeuchtigkeit
    00:00 +8°C° 0 mm 1 m/S 762 mmHg 80%
    01:00 +8°C° 0 mm 1 m/S 762 mmHg 80%
    02:00 +8°C° 0 mm 1 m/S 762 mmHg 81%
    03:00 +9°C° 0 mm 1 m/S 762 mmHg 82%
    04:00 +9°C° 0 mm 1 m/S 761 mmHg 84%
    05:00 +9°C° 0 mm 1 m/S 761 mmHg 86%
    06:00 +9°C° 0 mm 1 m/S 761 mmHg 88%
    07:00 +10°C° 0 mm 1 m/S 762 mmHg 84%
    08:00 +11°C° 0 mm 1 m/S 762 mmHg 81%
    09:00 +12°C° 0 mm 1 m/S 762 mmHg 77%
    10:00 +13°C° 0 mm 2 m/S 762 mmHg 70%
    11:00 +15°C° 0 mm 2 m/S 762 mmHg 63%
    12:00 +16°C° 0 mm 2 m/S 762 mmHg 57%
    13:00 +16°C° 0 mm 2 m/S 761 mmHg 59%
    14:00 +16°C° 0 mm 3 m/S 761 mmHg 62%
    15:00 +16°C° 0 mm 3 m/S 761 mmHg 65%
    16:00 +14°C° 0 mm 3 m/S 761 mmHg 71%
    17:00 +12°C° 0 mm 3 m/S 762 mmHg 77%
    18:00 +12°C° 0 mm 2 m/S 762 mmHg 83%
    19:00 +11°C° 0 mm 3 m/S 762 mmHg 83%
    20:00 +10°C° 0 mm 3 m/S 762 mmHg 82%
    21:00 +10°C° 0 mm 3 m/S 763 mmHg 82%
    22:00 +9°C° 0 mm 2 m/S 763 mmHg 79%
    23:00 +9°C° 0 mm 2 m/S 763 mmHg 76%
    Mehr zeigen